Weather History for Gainesville, GA

Change the Weather History Date:

Tuesday, December 4, 2012

  Actual Average Record
Temperature  
Mean Temperature 60 °F 46 °F  
Max Temperature 70 °F 55 °F 74 °F (1956)
Min Temperature 50 °F 38 °F 19 °F (1940)
Degree Days  
Heating Degree Days 5 19  
Month to date heating degree days 73  
Since 1 July heating degree days 608  
Growing Degree Days 10 (Base 50)    
Moisture  
Dew Point 50 °F    
Average Humidity 65    
Maximum Humidity 93    
Minimum Humidity 47    
Precipitation  
Precipitation 0.00 in 0.18 in 3.70 in (1931)
Month to date precipitation 0.70  
Snow  
Snow 0.00 in - - ()
Month to date snowfall  
Since 1 July snowfall  
Snow Depth -    
Sea Level Pressure  
Sea Level Pressure 30.26 in    
Wind  
Wind Speed 3 mph (SW)    
Max Wind Speed 8 mph    
Max Gust Speed -    
Visibility 10 miles    
Events      
T = Trace of Precipitation, MM = Missing Value Source: NWS Daily Summary

Daily Weather History Graph

Daily Weather History Graph

Search for Another Location

Airport:

Trip Planner

Search our weather history database for the weather conditions in past years. The results will help you decide how hot, cold, wet, or windy it might be!

Date:

Astronomy

Dec. 04, 2012 Rise Set
Actual Time 7:26 AM EST 5:25 PM EST
Civil Twilight 6:58 AM EST 5:52 PM EST
Nautical Twilight 6:27 AM EST 6:23 PM EST
Astronomical Twilight 5:57 AM EST 6:54 PM EST
Moon 11:01 PM EST (12/4) 11:28 AM EST (12/4)
Length of Visible Light 10h 54m
Length of Day
9h 59m
Waning Gibbous, 69% of the Moon is Illuminated
Dec 4
Waning Gibbous
Dec 6
Last Quarter
Dec 13
New
Dec 20
First Quarter
Dec 28
Full

Hourly Weather History & Observations

Time (EST) Temp. Dew Point Humidity Pressure Visibility Wind Dir Wind Speed Gust Speed Precip Events Conditions
12:53 AM 61.0 °F 50.0 °F 67% 30.25 in 10.0 mi South 4.6 mph - N/A   Overcast
1:53 AM 60.1 °F 50.0 °F 69% 30.25 in 10.0 mi South 4.6 mph - N/A   Mostly Cloudy
2:53 AM 57.9 °F 50.0 °F 75% 30.26 in 10.0 mi South 3.5 mph - N/A   Mostly Cloudy
3:53 AM 55.9 °F 48.9 °F 77% 30.26 in 10.0 mi Calm Calm - N/A   Mostly Cloudy
4:53 AM 54.0 °F 48.9 °F 83% 30.27 in 10.0 mi Calm Calm - N/A   Mostly Cloudy
6:53 AM 53.1 °F 48.0 °F 83% 30.30 in 10.0 mi Calm Calm - N/A   Mostly Cloudy
7:53 AM 50.0 °F 48.0 °F 93% 30.32 in 10.0 mi Calm Calm - N/A   Clear
8:53 AM 57.0 °F 51.1 °F 81% 30.32 in 10.0 mi Calm Calm - N/A   Clear
9:53 AM 62.1 °F 50.0 °F 65% 30.32 in 10.0 mi West 3.5 mph - N/A   Clear
10:53 AM 66.0 °F 50.0 °F 56% 30.32 in 10.0 mi West 4.6 mph - N/A   Clear
11:53 AM 66.9 °F 48.0 °F 51% 30.30 in 10.0 mi SW 8.1 mph - N/A   Clear
12:53 PM 66.9 °F 50.0 °F 54% 30.26 in 10.0 mi WSW 8.1 mph - N/A   Scattered Clouds
1:53 PM 70.0 °F 48.9 °F 47% 30.24 in 10.0 mi West 5.8 mph - N/A   Mostly Cloudy
2:53 PM 69.1 °F 48.9 °F 49% 30.22 in 10.0 mi WNW 8.1 mph - N/A   Overcast
3:53 PM 70.0 °F 50.0 °F 49% 30.22 in 10.0 mi West 5.8 mph - N/A   Overcast
4:53 PM 66.9 °F 50.0 °F 54% 30.21 in 10.0 mi Calm Calm - N/A   Scattered Clouds
5:53 PM 64.9 °F 48.9 °F 56% 30.22 in 10.0 mi Calm Calm - N/A   Mostly Cloudy
6:53 PM 64.0 °F 48.9 °F 58% 30.23 in 10.0 mi South 3.5 mph - N/A   Mostly Cloudy
7:53 PM 63.0 °F 50.0 °F 63% 30.24 in 10.0 mi Calm Calm - N/A   Mostly Cloudy
8:53 PM 62.1 °F 50.0 °F 65% 30.23 in 10.0 mi Calm Calm - N/A   Scattered Clouds
9:53 PM 61.0 °F 51.1 °F 70% 30.22 in 10.0 mi SW 3.5 mph - N/A   Scattered Clouds
10:53 PM 62.1 °F 51.1 °F 67% 30.22 in 10.0 mi SSW 4.6 mph - N/A   Scattered Clouds
11:53 PM 61.0 °F 51.1 °F 70% 30.21 in 10.0 mi SSW 4.6 mph - N/A   Mostly Cloudy